Weather History for South St. Paul, MN

Change the Weather History Date:

Tuesday, September 11, 2012

  Actual Average (KMSP) Record (KMSP)
Temperature  
Mean Temperature 80 °F 64 °F  
Max Temperature 96 °F 74 °F 96 °F (1895)
Min Temperature 63 °F 55 °F 35 °F (1962)
Degree Days  
Heating Degree Days 0 4  
Month to date heating degree days 27  
Since 1 July heating degree days 46  
Cooling Degree Days 14 3  
Month to date cooling degree days 39  
Year to date cooling degree days 720  
Growing Degree Days 30 (Base 50)    
Moisture  
Dew Point 48 °F    
Average Humidity 38    
Maximum Humidity 65    
Minimum Humidity 17    
Precipitation  
Precipitation 0.00 in 0.10 in 3.11 in (1900)
Month to date precipitation 1.19  
Year to date precipitation 23.36  
Snow  
Snow 0.00 in 0.00 in 0.00 in ()
Month to date snowfall 0.0  
Since 1 July snowfall 0.0  
Since 1 September snowfall 0.0  
Snow Depth -    
Sea Level Pressure  
Sea Level Pressure 29.79 in    
Wind  
Wind Speed 10 mph (South)    
Max Wind Speed 23 mph    
Max Gust Speed 36 mph    
Visibility 10 miles    
Events      
T = Trace of Precipitation, MM = Missing Value Source: NWS Daily Summary

Daily Weather History Graph

Daily Weather History Graph

Search for Another Location

Airport:

Trip Planner

Search our weather history database for the weather conditions in past years. The results will help you decide how hot, cold, wet, or windy it might be!

Date:

Astronomy

Sep. 11, 2012 Rise Set
Actual Time 6:46 AM CDT 7:29 PM CDT
Civil Twilight 6:17 AM CDT 7:59 PM CDT
Nautical Twilight 5:41 AM CDT 8:34 PM CDT
Astronomical Twilight 5:05 AM CDT 9:10 PM CDT
Moon 1:54 AM CDT (9/11) 4:48 PM CDT (9/11)
Length of Visible Light 13h 41m
Length of Day
12h 42m
Waning Crescent, 21% of the Moon is Illuminated
Sep 11
Waning Crescent
Sep 15
New
Sep 22
First Quarter
Sep 29
Full
Oct 8
Last Quarter

Hourly Weather History & Observations

Time (CDT) Temp. Dew Point Humidity Pressure Visibility Wind Dir Wind Speed Gust Speed Precip Events Conditions
12:12 AM 69.8 °F 48.6 °F 47% 29.85 in 10.0 mi South 9.2 mph - N/A   Clear
12:32 AM 69.8 °F 48.7 °F 47% 29.85 in 10.0 mi South 6.9 mph - N/A   Clear
12:52 AM 69.4 °F 48.7 °F 48% 29.85 in 10.0 mi South 8.1 mph - N/A   Clear
1:12 AM 68.9 °F 49.3 °F 50% 29.85 in 10.0 mi SSE 8.1 mph - N/A   Clear
1:32 AM 68.0 °F 49.5 °F 51% 29.85 in 10.0 mi SSE 8.1 mph - N/A   Clear
1:52 AM 67.5 °F 50.0 °F 53% 29.85 in 10.0 mi SSE 9.2 mph - N/A   Clear
2:12 AM 67.3 °F 50.0 °F 54% 29.84 in 10.0 mi SSE 8.1 mph - N/A   Clear
2:32 AM 67.1 °F 50.4 °F 55% 29.84 in 10.0 mi South 8.1 mph - N/A   Clear
2:52 AM 67.1 °F 50.4 °F 55% 29.83 in 10.0 mi South 6.9 mph - N/A   Clear
3:12 AM 66.7 °F 50.5 °F 56% 29.83 in 10.0 mi South 9.2 mph - N/A   Clear
3:32 AM 66.4 °F 50.5 °F 57% 29.83 in 10.0 mi SSE 8.1 mph - N/A   Clear
3:52 AM 66.4 °F 50.9 °F 57% 29.83 in 10.0 mi SSE 8.1 mph - N/A   Clear
4:12 AM 65.7 °F 50.9 °F 59% 29.82 in 10.0 mi SSE 8.1 mph - N/A   Clear
4:32 AM 65.5 °F 51.1 °F 60% 29.82 in 10.0 mi South 6.9 mph - N/A   Clear
4:52 AM 64.9 °F 51.1 °F 61% 29.82 in 10.0 mi South 5.8 mph - N/A   Clear
5:12 AM 64.6 °F 51.3 °F 62% 29.82 in 10.0 mi SSE 5.8 mph - N/A   Clear
5:32 AM 64.4 °F 51.3 °F 62% 29.82 in 10.0 mi SSE 5.8 mph - N/A   Clear
5:52 AM 64.4 °F 51.3 °F 62% 29.82 in 10.0 mi SSE 4.6 mph - N/A   Clear
6:12 AM 63.9 °F 51.4 °F 64% 29.82 in 10.0 mi SSE 4.6 mph - N/A   Clear
6:32 AM 63.9 °F 51.6 °F 64% 29.82 in 10.0 mi SSE 5.8 mph - N/A   Clear
6:52 AM 63.9 °F 51.8 °F 65% 29.82 in 10.0 mi SSE 5.8 mph - N/A   Clear
7:12 AM 63.9 °F 51.8 °F 65% 29.82 in 10.0 mi SSE 5.8 mph - N/A   Clear
7:32 AM 64.0 °F 51.8 °F 64% 29.82 in 10.0 mi SSE 6.9 mph - N/A   Clear
7:52 AM 64.4 °F 52.3 °F 65% 29.82 in 10.0 mi SSE 5.8 mph - N/A   Clear
8:12 AM 65.5 °F 52.3 °F 62% 29.82 in 10.0 mi South 5.8 mph - N/A   Clear
8:32 AM 67.3 °F 52.2 °F 58% 29.82 in 10.0 mi SSE 4.6 mph - N/A   Clear
8:52 AM 68.2 °F 52.3 °F 57% 29.82 in 10.0 mi SSE 5.8 mph - N/A   Clear
9:12 AM 70.5 °F 52.0 °F 52% 29.81 in 10.0 mi SSE 9.2 mph - N/A   Clear
9:32 AM 72.9 °F 50.9 °F 46% 29.81 in 10.0 mi South 9.2 mph 16.1 mph N/A   Clear
9:52 AM 74.5 °F 50.9 °F 43% 29.81 in 10.0 mi South 9.2 mph - N/A   Clear
10:12 AM 76.5 °F 50.7 °F 40% 29.81 in 10.0 mi South 10.4 mph 16.1 mph N/A   Clear
10:32 AM 77.7 °F 49.8 °F 37% 29.81 in 10.0 mi SSW 12.7 mph 18.4 mph N/A   Clear
10:52 AM 79.2 °F 49.1 °F 35% 29.81 in 10.0 mi SSW 15.0 mph 18.4 mph N/A   Clear
11:12 AM 81.3 °F 48.7 °F 32% 29.81 in 10.0 mi SSW 13.8 mph 19.6 mph N/A   Clear
11:32 AM 82.0 °F 48.4 °F 31% 29.80 in 10.0 mi SSW 11.5 mph 20.7 mph N/A   Clear
11:52 AM 84.2 °F 48.2 °F 29% 29.79 in 10.0 mi SSW 16.1 mph 21.9 mph N/A   Clear
12:12 PM 85.6 °F 47.8 °F 27% 29.78 in 10.0 mi SSW 15.0 mph 25.3 mph N/A   Clear
12:32 PM 87.4 °F 47.3 °F 25% 29.78 in 10.0 mi SSW 21.9 mph 27.6 mph N/A   Clear
12:52 PM 89.1 °F 47.5 °F 24% 29.76 in 10.0 mi SSW 21.9 mph 25.3 mph N/A   Clear
1:12 PM 90.7 °F 47.1 °F 22% 29.76 in 10.0 mi SSW 17.3 mph 27.6 mph N/A   Clear
1:32 PM 91.6 °F 46.2 °F 21% 29.75 in 7.0 mi South 19.6 mph 29.9 mph N/A   Clear
1:52 PM 92.7 °F 46.6 °F 20% 29.74 in 10.0 mi SSW 17.3 mph 26.5 mph N/A   Unknown
2:12 PM 94.6 °F 45.7 °F 19% 29.73 in 10.0 mi SSW 19.6 mph 29.9 mph N/A   Clear
2:32 PM 94.6 °F 45.5 °F 18% 29.73 in 10.0 mi South 21.9 mph 34.5 mph N/A   Unknown
2:52 PM 95.7 °F 45.5 °F 18% 29.73 in 10.0 mi South 15.0 mph 29.9 mph N/A   Unknown
3:12 PM 95.9 °F 45.5 °F 18% 29.72 in 10.0 mi South 16.1 mph 28.8 mph N/A   Unknown
3:32 PM 95.5 °F 44.6 °F 17% 29.72 in 10.0 mi SSW 21.9 mph 35.7 mph N/A   Unknown
3:52 PM 95.9 °F 44.4 °F 17% 29.72 in 10.0 mi SSW 18.4 mph 32.2 mph N/A   Unknown
4:12 PM 96.1 °F 44.4 °F 17% 29.72 in 10.0 mi SSW 23.0 mph 34.5 mph N/A   Unknown
4:32 PM 95.9 °F 44.2 °F 17% 29.71 in 10.0 mi South 23.0 mph 32.2 mph N/A   Unknown
4:52 PM 95.7 °F 45.0 °F 17% 29.71 in 10.0 mi SSW 16.1 mph 26.5 mph N/A   Unknown
5:12 PM 95.0 °F 44.8 °F 18% 29.72 in 10.0 mi SSW 19.6 mph 26.5 mph N/A   Unknown
5:32 PM 94.5 °F 45.1 °F 18% 29.71 in 7.0 mi SSW 20.7 mph 29.9 mph N/A   Unknown
5:52 PM 94.1 °F 45.3 °F 19% 29.71 in 10.0 mi SSW 17.3 mph 28.8 mph N/A   Unknown
6:12 PM 93.2 °F 45.3 °F 19% 29.71 in 10.0 mi SSW 15.0 mph 29.9 mph N/A   Unknown
6:32 PM 91.9 °F 45.9 °F 20% 29.72 in 10.0 mi South 11.5 mph 20.7 mph N/A   Unknown
6:52 PM 90.7 °F 46.4 °F 22% 29.73 in 10.0 mi SSW 10.4 mph 18.4 mph N/A   Unknown
7:12 PM 89.8 °F 45.7 °F 22% 29.74 in 10.0 mi SSW 15.0 mph 20.7 mph N/A   Unknown
7:32 PM 88.5 °F 45.7 °F 23% 29.75 in 10.0 mi SSW 11.5 mph 19.6 mph N/A   Unknown
7:52 PM 87.4 °F 46.0 °F 24% 29.75 in 10.0 mi South 11.5 mph 18.4 mph N/A   Unknown
8:12 PM 86.0 °F 46.4 °F 25% 29.76 in 10.0 mi South 8.1 mph 16.1 mph N/A   Unknown
8:32 PM 85.1 °F 46.4 °F 26% 29.77 in 10.0 mi South 8.1 mph - N/A   Clear
8:52 PM 83.8 °F 46.8 °F 27% 29.78 in 10.0 mi South 10.4 mph - N/A   Clear
9:12 PM 82.9 °F 47.3 °F 29% 29.78 in 10.0 mi South 10.4 mph - N/A   Clear
9:32 PM 81.7 °F 47.3 °F 30% 29.79 in 10.0 mi South 8.1 mph - N/A   Clear
9:52 PM 81.0 °F 46.9 °F 30% 29.80 in 10.0 mi South 6.9 mph - N/A   Clear
10:12 PM 80.6 °F 46.8 °F 30% 29.80 in 10.0 mi South 5.8 mph - N/A   Clear
10:32 PM 80.1 °F 46.6 °F 31% 29.81 in 10.0 mi South 8.1 mph - N/A   Clear
10:52 PM 80.6 °F 46.8 °F 30% 29.81 in 10.0 mi SSW 10.4 mph 17.3 mph N/A   Clear
11:32 PM 79.5 °F 47.5 °F 32% 29.83 in 10.0 mi SSW 6.9 mph 16.1 mph N/A   Clear
11:52 PM 78.8 °F 48.2 °F 34% 29.84 in 10.0 mi SSW 8.1 mph - N/A   Clear